Wind_Speed
11 10 10 11 11 12 12 12 13 13 13 13 14 14 14 14 14 14 15 15 15 15 15 15 16 15 15 15 16 17 18 19 18 20 24 24 18 16 15 13 13 13 13 13 14 14 14 15 15 15 15 13 10 10 12 11 8 6 2 2 2 3 4 4 6 4 2 3 7 6 5 4 3 6 8 7 9 12 8 4 5 2 2 8 8 16 26 21
11 11 11 11 12 12 12 12 13 13 14 14 14 14 14 14 15 15 16 16 16 16 15 15 16 16 15 14 15 17 19 19 20 24 26 22 18 16 14 14 15 16 15 13 14 14 14 15 15 16 16 12 8 8 9 9 11 7 3 2 4 4 5 5 6 6 3 4 9 8 5 5 3 4 5 4 2 5 6 5 9 11 11 11 15 23 23 21
11 11 12 12 12 12 12 13 13 14 14 14 15 15 15 15 15 16 16 16 16 16 16 16 16 16 14 13 14 16 18 18 21 26 26 20 18 18 15 15 17 18 16 11 9 11 13 13 13 15 14 11 8 9 7 6 10 8 4 2 6 6 4 10 12 15 16 9 9 7 4 5 5 6 3 6 3 2 3 4 7 13 16 18 25 27 23 23
12 12 12 12 13 13 13 13 14 14 15 15 16 16 16 16 16 16 16 16 16 16 16 16 16 16 13 13 13 13 14 15 18 23 22 17 17 19 18 18 17 18 16 12 9 9 11 11 12 14 12 7 7 7 5 7 7 5 6 4 5 5 4 14 16 16 20 14 10 6 3 5 7 7 5 11 6 2 5 10 9 13 20 25 29 28 24 24
13 13 12 12 13 14 13 14 14 15 15 16 16 16 16 16 16 16 16 16 15 16 16 16 16 15 13 13 12 11 8 7 8 12 11 10 15 19 19 20 19 16 15 14 11 9 12 12 12 13 9 4 4 4 5 13 10 2 6 7 5 4 4 13 12 10 15 15 12 6 2 1 4 6 5 10 6 3 6 9 11 14 19 23 26 27 26 24
14 14 13 13 13 13 13 14 14 15 16 16 16 17 17 17 17 16 16 16 15 15 15 16 16 14 13 12 12 10 4 3 3 1 4 6 9 15 17 20 20 17 14 15 13 12 14 13 12 11 7 3 3 5 6 12 11 3 5 6 9 10 8 13 11 10 13 11 10 5 3 2 1 5 1 4 5 2 3 6 10 14 17 18 21 25 25 25
15 14 14 14 13 13 13 14 15 15 16 16 16 16 17 17 16 16 16 15 15 14 14 16 15 14 13 11 12 10 10 16 11 3 4 2 2 9 15 19 20 19 17 17 16 15 15 15 14 11 6 2 5 7 8 9 8 6 5 5 11 14 13 20 19 17 15 13 12 6 4 4 2 4 3 5 7 2 2 5 10 16 19 20 22 22 21 24
15 14 14 14 14 13 14 14 15 15 16 16 16 16 17 17 16 16 16 15 14 13 14 15 13 13 12 10 11 9 14 21 14 7 10 6 2 5 12 16 18 19 18 18 18 17 17 18 17 11 5 4 6 5 7 6 4 6 6 7 11 13 17 25 24 23 22 19 17 8 5 7 8 4 2 8 11 4 1 6 11 19 22 24 23 20 21 26
15 15 14 14 14 14 14 14 15 15 16 16 16 16 17 17 16 16 16 15 14 13 14 14 13 12 11 10 8 7 16 19 12 11 14 11 6 6 9 13 15 17 16 16 16 15 17 20 20 15 7 6 7 4 5 5 3 7 10 10 9 12 20 21 18 20 21 19 14 6 5 10 10 4 4 10 9 2 2 7 14 20 23 24 22 20 24 27
17 15 13 14 14 15 15 14 15 16 16 16 15 15 17 17 16 16 15 15 14 14 14 13 12 10 10 11 6 4 13 15 12 13 15 14 10 9 9 10 11 12 13 15 15 17 22 23 20 15 8 6 6 6 7 6 4 5 9 10 11 16 20 15 13 16 16 14 12 8 7 11 8 4 4 8 4 4 7 11 16 20 22 23 21 21 25 25
20 17 14 14 14 14 15 14 15 16 16 15 15 15 17 17 16 15 15 14 14 14 13 12 11 10 10 11 10 8 11 10 10 13 13 13 11 9 8 7 7 8 11 14 16 22 26 23 16 9 5 4 4 5 6 6 5 7 6 7 10 12 13 11 10 12 10 7 12 13 6 8 4 3 9 10 4 7 11 15 18 21 22 22 21 22 24 24
19 17 15 14 14 14 15 15 15 15 15 15 14 15 16 16 15 14 14 14 15 14 12 11 10 11 10 12 18 18 12 9 8 11 13 12 11 8 7 8 9 8 10 13 17 23 25 21 14 8 5 3 3 2 4 5 5 8 5 3 7 6 4 8 6 8 9 3 10 11 2 7 3 6 13 9 7 11 15 19 20 22 23 22 22 23 23 23
17 16 15 14 14 14 15 15 15 15 15 15 15 15 16 16 14 13 13 13 14 13 12 10 9 11 9 13 23 20 12 11 10 11 13 13 12 10 9 9 11 10 12 13 15 20 23 19 15 12 11 6 3 3 5 6 5 6 1 1 4 6 4 6 2 7 8 3 9 9 2 7 6 12 13 4 10 16 17 20 22 24 24 23 23 23 23 23
16 14 14 14 14 14 15 15 15 15 15 15 15 16 16 15 14 13 14 13 13 12 11 10 10 10 9 17 24 19 14 16 16 15 15 15 14 12 10 9 10 11 11 13 14 17 20 18 14 13 14 12 8 5 6 5 3 3 1 1 1 1 4 7 2 6 5 3 10 9 2 8 8 15 12 2 13 18 19 22 23 24 24 24 24 24 23 24
15 14 14 14 14 14 15 16 16 16 15 15 15 16 15 13 13 13 13 12 11 11 9 9 9 7 9 19 21 14 15 20 23 21 17 17 16 13 11 9 10 10 9 12 14 16 19 16 13 10 9 10 7 3 3 4 3 2 0 3 3 2 5 9 5 4 4 2 6 7 2 7 9 15 10 1 14 19 21 23 24 25 26 26 26 25 24 24
16 15 15 14 13 14 15 15 15 16 15 15 16 15 14 12 13 13 12 11 10 9 7 6 7 6 6 13 12 10 16 24 26 23 19 18 17 12 8 8 9 9 8 10 12 16 19 14 11 9 7 6 3 2 3 4 4 3 2 2 3 1 2 5 5 2 3 3 1 3 3 5 6 7 5 7 14 20 20 22 26 27 27 27 27 25 25 25
16 15 15 14 14 14 15 14 14 15 15 15 15 14 12 12 12 11 9 8 8 6 5 2 2 4 8 10 9 11 17 23 22 20 21 21 17 11 9 9 10 9 8 9 11 14 16 12 8 6 3 2 3 4 2 2 3 3 2 0 3 2 1 2 4 5 2 4 2 3 3 7 9 7 2 7 8 19 21 24 28 27 26 27 27 27 26 27
16 15 15 15 14 14 14 14 14 15 16 15 14 12 10 10 11 10 9 9 7 4 3 5 5 1 10 16 13 8 8 14 18 18 19 20 16 11 10 12 10 9 8 6 9 12 12 8 4 2 1 2 3 5 4 5 4 3 0 1 2 3 2 2 3 3 1 1 3 2 4 11 11 11 9 7 3 16 21 24 26 24 24 24 25 27 27 27
15 14 15 15 14 13 14 13 14 15 15 14 12 10 8 7 6 7 10 11 11 6 1 10 15 5 4 8 11 9 4 6 14 16 17 17 16 14 13 12 10 10 7 3 5 9 8 3 3 3 2 3 4 6 7 7 7 7 4 4 1 2 3 4 5 6 2 1 4 6 7 11 11 11 9 6 3 9 13 15 18 18 19 22 23 25 27 26
14 14 14 14 14 13 13 12 13 14 14 13 10 6 5 3 2 3 8 15 19 16 8 12 22 18 7 2 2 7 5 5 12 15 16 17 16 15 15 13 9 8 7 4 5 6 7 4 2 5 6 6 7 7 8 5 6 5 3 2 1 1 4 5 5 6 1 3 6 9 10 11 11 9 6 6 6 1 6 12 15 17 19 20 21 24 25 22
14 14 14 13 13 13 12 12 13 13 13 12 9 6 4 2 1 1 3 12 19 22 22 22 21 24 23 13 7 9 8 4 11 14 15 18 18 13 13 12 6 4 5 5 4 2 4 5 5 7 8 8 7 6 6 4 4 3 2 1 3 2 4 6 4 6 1 5 5 5 8 10 10 7 7 8 7 7 5 5 13 18 21 21 23 25 18 13
14 14 14 13 12 11 12 12 12 12 11 11 10 8 4 2 2 3 5 9 16 20 23 26 26 31 33 26 22 19 12 6 9 13 15 18 19 12 9 8 5 3 3 4 4 1 2 4 8 8 6 5 4 4 5 3 4 3 2 2 3 3 3 6 5 6 1 3 3 3 6 8 9 5 5 8 6 9 15 8 4 12 18 21 22 18 9 9
14 14 13 13 12 11 12 12 11 10 11 12 11 7 3 6 6 7 8 7 12 17 19 23 28 34 34 28 23 18 11 7 7 13 18 19 19 16 10 7 5 5 3 4 5 3 2 5 8 6 6 6 2 2 5 3 2 3 3 3 3 2 0 3 4 6 3 2 1 5 4 4 7 4 4 6 6 14 24 22 14 7 11 15 12 8 7 11
14 13 13 13 11 11 12 11 9 9 12 12 8 3 4 8 8 6 6 4 7 12 17 22 25 29 32 24 15 14 15 10 7 12 20 21 19 16 10 6 6 5 3 5 7 5 5 6 4 7 7 7 4 3 6 4 2 2 4 5 4 3 3 5 4 5 5 5 3 6 5 4 5 6 4 4 8 18 26 27 25 22 11 4 3 6 10 12
14 13 13 13 12 11 11 9 7 9 12 8 3 3 6 9 8 3 2 2 5 6 10 14 18 24 28 19 11 13 11 9 11 13 17 24 22 14 8 7 6 4 5 6 7 5 8 6 4 7 5 6 6 5 5 6 3 3 3 8 8 6 6 5 3 5 5 5 4 6 5 3 4 6 6 7 9 15 20 22 23 27 24 14 5 3 6 9
13 12 12 12 11 10 10 7 5 8 7 2 1 3 6 8 5 2 3 2 4 4 3 8 12 14 16 16 17 13 2 5 15 15 15 22 25 16 8 5 4 4 6 5 4 3 4 5 6 7 6 6 6 5 5 7 5 1 5 9 9 6 5 3 2 4 3 1 3 4 6 2 4 7 8 8 9 12 14 18 20 24 25 21 13 7 7 9
12 12 12 12 9 9 9 5 5 6 3 2 3 4 4 3 2 4 4 2 3 5 5 7 9 8 10 18 24 15 2 5 13 13 17 20 23 19 9 4 3 4 5 4 2 3 3 6 6 6 6 6 6 5 6 8 7 3 6 7 7 6 6 5 5 4 2 2 4 5 4 4 2 5 8 8 7 11 14 16 17 20 22 22 20 12 9 10
11 12 12 11 9 9 9 9 8 6 4 3 4 4 1 3 6 5 3 2 2 5 4 6 8 6 8 16 26 17 2 9 11 10 20 22 21 17 7 5 6 5 5 6 3 4 3 7 7 7 5 4 5 6 8 10 6 7 7 6 7 6 7 5 6 4 0 2 3 6 3 5 1 5 7 7 7 10 13 13 14 17 20 21 22 17 12 10
11 11 11 11 9 8 9 11 8 3 4 4 4 4 3 5 6 3 1 2 2 3 1 7 8 6 9 14 22 16 5 9 9 9 20 22 19 15 7 9 9 5 5 6 6 5 2 7 8 7 5 5 8 6 10 12 6 6 5 5 3 3 4 4 5 4 3 4 2 7 0 5 1 5 6 6 5 6 8 9 10 15 20 20 20 19 15 11
11 11 11 11 10 8 11 12 6 1 3 5 4 4 3 6 3 2 2 4 2 1 2 7 8 8 13 11 10 12 6 5 6 10 18 18 18 14 8 11 8 5 2 1 3 5 4 3 4 5 6 8 9 6 10 14 9 4 5 5 5 6 5 4 3 4 3 1 5 7 1 5 1 3 4 4 3 4 4 6 8 13 19 19 20 20 17 14
12 11 10 11 10 9 10 8 4 3 3 4 3 2 4 4 1 1 4 3 1 1 3 5 5 7 13 10 7 10 5 2 6 10 10 9 11 8 4 5 3 4 0 2 2 4 5 2 1 5 11 9 4 3 7 10 6 5 5 4 4 3 4 4 4 4 4 2 6 5 2 8 3 2 2 4 4 5 5 5 7 10 15 17 19 20 19 17
12 11 10 10 11 12 9 1 3 6 3 2 2 3 4 2 0 3 4 3 2 1 1 3 4 6 10 8 7 8 5 3 4 7 6 5 5 5 2 4 4 3 1 3 2 4 4 3 3 4 9 8 5 1 1 2 4 5 4 5 5 1 2 1 3 1 2 3 3 4 3 6 1 2 1 4 5 5 6 7 8 10 13 15 17 19 19 18
13 12 11 11 13 14 9 3 5 6 3 2 4 3 3 2 3 5 3 3 1 0 2 1 2 5 9 8 6 7 6 4 4 5 6 6 5 6 4 2 5 5 2 4 2 1 3 5 4 2 5 7 8 4 2 2 2 5 5 5 5 3 3 2 3 0 2 2 2 4 2 3 0 1 4 5 4 5 7 10 12 13 15 16 18 19 19 17
12 13 13 13 14 13 8 7 9 6 4 6 5 3 2 2 4 3 3 3 2 2 5 1 4 5 8 7 5 7 5 3 5 6 4 5 5 5 4 1 4 4 3 3 2 3 2 4 4 3 3 5 8 7 7 6 4 3 4 6 5 5 4 3 3 3 3 2 2 2 2 3 2 1 4 5 4 7 10 12 14 16 17 19 21 21 20 19
12 13 15 14 14 11 8 10 12 8 7 7 4 2 3 3 3 1 3 2 4 2 7 1 6 5 5 3 3 7 6 2 4 6 4 5 5 6 5 4 5 4 4 4 2 2 4 4 7 5 3 5 7 6 6 8 3 1 2 6 3 5 6 3 3 5 5 2 2 3 2 1 1 3 5 6 6 9 12 13 15 16 18 21 23 22 21 20
12 12 14 14 10 8 10 14 15 12 10 8 4 2 4 3 2 2 3 1 2 3 7 3 3 5 4 1 1 6 4 2 4 4 3 5 4 4 5 4 6 6 5 4 2 1 3 4 7 3 3 4 6 6 6 7 4 1 2 4 3 4 7 5 2 1 3 4 1 1 3 2 1 3 5 7 8 8 9 11 13 14 17 20 21 20 19 19
11 10 12 11 7 9 13 16 17 15 12 7 3 3 4 3 3 3 3 4 4 6 3 0 2 3 4 3 3 5 4 3 4 4 2 3 1 2 4 2 3 8 8 5 2 2 4 3 6 1 3 5 4 5 2 3 6 4 3 5 2 3 5 4 2 3 4 3 1 2 3 2 1 1 2 6 7 7 7 8 11 14 17 17 16 16 16 15
9 7 6 5 8 12 13 17 20 17 10 4 2 3 2 3 5 6 6 7 7 4 1 2 2 3 4 4 3 4 6 4 4 4 3 2 1 1 2 1 1 5 9 7 2 2 3 0 6 2 2 3 2 5 3 4 3 5 5 4 4 3 1 1 3 2 2 3 1 3 3 1 0 1 2 5 6 6 6 8 11 14 15 14 14 15 15 15
6 5 5 2 9 11 13 19 21 15 6 2 2 3 2 4 7 11 12 10 5 1 1 1 2 3 3 4 3 3 6 7 5 4 2 2 1 1 1 2 1 2 7 10 5 2 3 2 4 5 2 1 3 4 2 2 4 4 4 3 2 3 4 2 2 3 4 3 2 2 2 1 0 1 2 6 5 6 7 8 10 12 14 13 13 15 16 16
4 4 2 6 8 9 15 20 17 10 3 2 4 3 3 4 8 15 20 14 4 2 1 0 2 3 1 3 3 2 4 4 4 3 1 2 2 1 2 1 1 0 4 8 5 1 2 3 2 5 5 1 1 1 4 5 1 1 3 2 0 2 2 2 1 2 4 4 3 3 1 2 0 2 4 7 6 5 9 9 9 12 13 13 14 15 16 17
2 3 1 8 10 14 20 16 8 4 1 1 2 2 3 6 7 14 22 16 4 2 1 1 2 3 2 2 2 1 2 3 3 3 2 2 2 1 1 1 2 2 3 5 3 1 2 3 2 2 4 3 1 4 2 5 5 3 3 3 3 3 4 3 1 1 2 4 4 5 3 2 2 3 5 8 7 8 11 11 11 11 11 12 13 14 15 16
0 1 3 10 16 20 19 8 1 2 2 2 2 4 6 7 5 8 15 11 3 2 2 2 2 2 2 2 2 2 4 3 3 3 3 2 2 2 3 6 1 3 5 4 1 2 3 4 3 2 2 1 1 4 2 7 10 8 4 2 2 3 4 5 4 3 2 3 2 4 3 2 3 5 6 8 9 11 13 13 11 10 10 10 12 14 14 15
1 1 6 15 20 17 9 2 1 1 2 3 5 7 8 6 4 7 9 5 2 2 3 2 1 3 3 3 4 4 4 4 4 3 4 3 2 2 7 8 2 3 4 3 1 1 2 4 4 1 3 3 3 4 4 7 9 7 5 3 3 1 2 5 5 4 3 2 1 4 2 2 4 7 8 9 12 14 14 12 11 10 10 11 13 15 16 16
1 2 5 17 20 9 2 1 2 2 3 3 4 6 8 6 5 7 7 3 2 1 2 3 3 3 3 3 4 4 3 4 4 3 3 3 1 6 11 10 5 3 3 2 3 2 1 1 4 4 1 4 4 4 5 6 5 4 3 4 4 3 2 4 3 3 3 2 3 4 3 2 4 7 8 9 11 13 12 11 11 11 10 11 13 15 16 17
3 2 3 16 19 8 3 2 1 1 2 2 3 5 6 6 7 9 6 3 3 3 3 2 3 3 4 4 5 7 6 5 3 2 2 2 1 5 11 12 9 6 4 4 5 5 3 1 3 5 4 3 2 2 1 1 2 3 3 6 6 5 2 2 3 4 2 2 3 4 3 4 6 7 7 7 8 10 10 10 11 12 11 11 12 14 15 17
2 0 1 9 15 11 7 6 1 1 2 0 1 4 4 4 5 4 2 3 6 7 5 3 3 5 6 6 7 8 9 7 5 3 2 3 1 3 8 13 12 9 8 9 6 4 5 3 2 5 5 5 5 3 2 2 3 3 4 7 7 5 3 2 4 3 4 4 3 1 5 8 7 6 7 6 7 7 7 9 11 11 11 11 12 13 14 16
2 1 1 4 7 8 7 7 3 2 1 2 1 4 4 4 3 3 5 4 4 6 5 5 6 5 3 5 6 5 6 7 8 5 3 3 1 2 9 13 12 11 8 8 8 4 5 3 4 8 8 4 4 5 5 7 7 5 5 6 7 6 5 6 5 2 4 5 1 2 8 9 6 6 7 5 5 6 7 9 10 10 11 11 12 13 15 16
2 3 1 3 3 3 3 5 5 4 2 1 1 4 3 1 1 1 2 3 4 5 4 5 9 6 3 4 5 3 4 6 6 4 2 4 2 2 7 8 8 11 8 6 7 5 6 3 3 8 10 9 7 8 10 12 10 9 9 8 8 9 8 8 5 2 2 4 4 8 10 8 5 7 7 5 6 7 8 9 9 9 11 11 12 14 16 16
1 4 2 2 1 2 4 4 4 5 5 4 3 4 2 1 2 1 2 3 5 7 5 4 6 7 6 5 6 4 2 3 3 2 0 2 3 2 3 3 5 10 8 5 5 4 5 3 2 7 10 9 8 6 9 13 12 10 11 10 9 11 11 9 7 7 8 7 8 12 12 8 5 6 6 7 8 8 9 9 10 11 11 11 12 13 13 14
1 3 2 1 2 2 4 4 3 4 3 4 3 3 1 2 4 3 4 4 3 3 6 7 5 7 9 9 8 4 1 5 6 2 2 3 2 2 1 1 1 6 7 3 3 4 4 3 2 4 7 6 5 5 8 12 14 12 11 9 8 9 9 8 6 7 9 9 9 11 10 6 4 6 8 8 8 9 9 9 11 12 11 10 11 11 12 13
4 5 3 2 2 1 3 2 3 4 1 2 3 2 2 2 2 5 6 8 6 5 5 9 8 7 8 10 10 5 3 6 9 7 6 5 3 2 1 2 3 2 5 3 2 4 4 5 3 3 5 2 1 5 7 10 14 13 10 9 8 7 6 5 4 4 4 8 10 9 6 3 4 7 9 9 9 10 9 10 11 11 11 11 11 11 12 13
5 3 0 1 1 2 2 1 2 3 2 3 2 1 1 1 1 4 6 10 10 10 10 11 10 7 6 8 6 4 5 9 11 11 11 10 8 5 3 3 4 3 2 2 2 3 3 5 3 2 4 3 3 4 2 4 7 6 5 5 4 4 5 5 5 7 5 4 6 4 3 5 6 7 8 7 8 9 9 10 10 10 10 11 11 11 12 13
Wind_Direction
291 285 275 274 269 264 264 263 262 262 263 264 265 266 268 270 272 273 273 273 274 274 276 277 278 279 282 287 290 288 286 284 281 276 264 254 251 252 251 248 240 233 225 213 217 218 215 216 206 203 201 199 210 210 208 213 205 195 152 139 221 205 201 202 200 216 185 252 286 316 15 86 28 28 91 106 113 120 135 92 87 110 117 155 152 163 171 175
292 288 275 269 266 262 264 264 262 264 265 265 267 268 270 272 273 273 274 275 275 275 274 275 277 278 283 289 291 289 288 288 288 273 258 255 261 258 247 241 235 232 230 222 225 224 219 214 198 197 198 194 204 203 205 209 201 194 126 154 220 201 213 224 219 260 267 256 286 298 6 45 23 18 116 134 119 120 113 83 87 94 103 129 153 165 173 176
293 291 280 269 267 263 262 262 262 263 265 267 268 270 272 272 273 273 274 275 276 276 274 273 275 278 283 288 289 290 293 298 293 271 258 263 262 252 241 234 233 231 230 227 232 231 223 213 199 196 191 193 201 197 200 194 198 203 173 188 236 208 236 264 256 269 278 280 286 287 354 13 2 14 106 151 139 119 151 152 110 108 123 142 159 169 176 178
294 292 285 274 271 266 262 261 260 262 264 268 269 271 273 273 274 273 274 274 275 275 273 273 273 276 282 284 283 287 301 310 292 271 267 267 249 239 230 224 230 229 224 222 226 224 214 204 198 193 185 201 215 208 216 200 195 193 189 204 234 192 220 263 261 268 282 297 292 276 0 1 348 6 109 139 124 310 232 201 184 151 150 156 166 175 178 181
291 291 287 278 273 267 264 263 263 264 265 267 270 273 273 274 274 273 274 273 273 274 272 272 271 275 279 277 277 280 308 332 290 265 261 246 232 231 220 217 225 226 219 217 216 207 202 194 186 186 186 215 217 210 232 218 210 184 221 234 245 212 228 261 269 278 284 293 284 282 358 336 333 347 124 144 154 241 250 223 207 181 169 167 171 178 181 186
289 291 287 279 275 269 264 265 266 265 266 269 271 274 274 274 274 274 273 271 271 272 271 270 269 273 273 271 273 267 250 252 260 201 204 209 224 222 210 212 217 219 218 211 207 203 201 189 177 180 179 195 206 205 226 224 215 228 265 250 248 239 239 266 275 278 279 276 260 259 291 248 22 323 245 189 204 215 285 252 218 194 181 175 174 180 186 189
286 291 289 279 274 271 265 265 266 266 268 270 272 275 276 275 275 275 272 271 270 270 270 268 268 269 269 270 268 257 235 242 247 217 222 219 199 204 196 201 205 211 216 211 204 202 200 190 186 184 161 178 211 216 236 236 208 212 268 264 260 252 247 265 266 259 263 263 252 230 248 272 291 299 318 280 273 304 267 229 210 188 177 177 179 185 190 188
290 292 292 282 274 270 267 266 266 268 270 271 275 277 277 276 275 276 274 272 269 269 269 265 265 267 268 266 265 263 246 247 251 246 251 253 187 182 184 188 196 207 215 212 204 200 198 193 194 186 162 212 210 208 231 244 218 204 244 260 267 264 258 265 265 257 258 260 254 226 216 244 241 259 317 268 275 329 178 204 192 179 178 181 185 191 189 187
293 292 292 285 275 267 265 266 267 269 271 272 276 278 279 278 276 277 275 273 270 268 266 264 266 266 267 262 259 271 254 253 263 248 240 239 210 178 181 181 189 203 209 206 202 204 204 199 197 191 193 230 224 223 213 219 237 204 224 249 263 266 263 264 261 257 255 250 243 223 245 245 228 230 277 257 258 296 185 189 180 178 182 185 190 194 189 190
288 288 291 289 280 272 267 267 268 270 273 274 277 281 282 278 276 277 275 274 269 266 266 266 266 262 264 253 226 250 256 258 258 234 225 228 213 188 186 181 186 200 203 201 202 204 203 202 200 198 216 249 237 235 221 205 226 222 230 252 256 259 266 261 251 249 242 238 228 209 236 246 226 187 246 259 243 200 192 180 180 184 187 190 194 196 192 195
285 281 283 284 280 276 271 269 270 271 275 277 281 285 284 280 278 276 275 273 268 267 268 267 267 259 255 242 217 225 249 255 239 220 216 215 205 196 196 197 206 214 213 210 209 203 201 203 198 195 220 250 248 240 234 225 250 277 280 282 265 262 268 251 234 230 215 229 226 207 225 257 243 167 232 242 213 199 195 181 182 189 192 194 198 198 196 200
291 283 281 282 280 277 271 270 271 273 277 279 283 285 284 282 279 276 274 272 269 268 269 270 268 254 249 241 233 232 238 249 230 206 204 200 196 205 216 231 242 246 238 224 214 206 204 204 198 213 243 246 270 263 254 269 292 293 297 299 290 329 311 241 223 202 188 205 211 193 293 290 260 227 238 235 198 196 191 183 184 191 195 196 201 202 199 201
298 291 284 283 285 281 274 272 272 273 276 280 284 284 284 281 278 276 271 269 269 269 270 269 262 254 250 244 242 240 238 244 233 200 195 198 200 208 216 231 239 244 251 241 226 211 204 204 208 238 265 263 254 267 286 306 315 295 307 161 287 360 338 254 220 173 180 185 176 154 308 276 265 253 251 229 185 185 180 182 187 193 197 198 203 205 201 201
299 297 291 288 287 283 278 273 272 272 274 280 284 284 284 281 277 272 269 269 268 270 269 265 261 252 245 248 250 250 241 238 232 206 194 201 203 204 209 220 225 225 239 238 228 213 203 207 224 253 271 259 250 274 304 334 350 304 330 47 340 31 279 292 313 157 162 203 169 132 268 261 279 274 275 200 184 183 179 186 191 196 198 200 206 207 203 202
297 298 294 289 287 286 280 272 273 274 274 279 282 285 285 281 276 268 266 267 266 266 263 263 258 240 252 261 259 254 239 232 225 206 195 206 204 201 206 210 212 210 220 220 216 210 202 211 235 254 260 242 244 276 326 349 359 20 41 303 333 183 258 311 322 167 155 209 172 131 232 268 279 280 302 124 185 187 187 193 196 201 200 201 205 207 207 207
298 298 294 289 287 289 282 276 278 278 277 278 281 285 285 281 273 264 265 264 261 260 254 261 250 230 267 272 260 246 232 226 220 207 205 211 204 198 203 204 201 196 202 202 204 210 208 222 251 249 227 203 176 102 44 355 339 11 116 230 280 239 277 315 328 301 162 146 233 165 203 275 278 278 16 93 182 191 192 202 204 205 203 201 204 207 210 210
293 296 296 292 288 288 285 280 281 281 281 280 281 285 284 279 269 263 262 250 242 233 215 211 215 238 255 260 257 242 231 226 220 212 211 213 206 193 190 195 192 190 196 194 202 219 221 232 247 237 220 150 113 100 90 296 292 315 7 123 259 263 295 286 320 329 116 130 241 216 203 249 261 267 1 66 169 191 197 209 210 208 206 202 204 208 211 213
291 294 295 288 284 289 287 282 281 283 284 282 285 289 286 278 268 259 244 223 203 169 207 201 139 358 256 245 245 237 233 226 217 213 211 213 208 190 184 189 188 193 202 207 214 223 228 229 202 179 49 84 113 107 155 217 205 211 212 84 304 322 326 273 278 293 1 83 229 223 250 251 261 272 283 3 105 196 209 216 213 209 207 205 207 209 212 216
294 297 298 287 280 285 285 283 282 283 285 284 286 292 294 288 268 252 228 205 185 162 213 203 182 175 277 246 236 235 257 215 205 209 206 205 202 194 193 194 198 198 183 176 216 208 203 191 130 160 175 175 173 147 176 201 173 168 163 142 158 309 288 266 249 259 277 284 241 223 236 248 257 267 277 343 34 192 203 208 211 211 210 209 209 212 216 217
297 297 299 293 285 285 285 284 283 284 287 285 286 293 291 276 245 238 218 211 213 218 241 223 205 215 251 359 185 234 259 203 198 205 201 197 192 192 202 203 202 193 165 148 192 193 177 175 179 189 192 195 199 184 181 174 146 151 133 124 195 247 278 280 265 281 254 181 248 225 218 243 250 257 288 338 0 57 157 166 185 202 213 215 212 217 219 216
300 298 299 294 287 286 285 282 281 283 284 284 292 290 258 231 149 14 245 238 244 242 246 249 238 243 254 257 252 275 301 250 200 197 196 196 189 188 204 200 178 176 187 161 155 144 153 184 219 211 201 192 190 185 178 154 121 126 136 188 289 240 258 273 266 296 247 171 256 221 203 240 246 264 331 359 9 359 5 161 186 200 208 214 218 221 215 203
299 299 301 295 286 283 281 280 279 278 279 278 279 269 262 342 16 330 311 281 273 262 251 252 252 255 257 254 254 269 288 269 215 195 188 190 189 191 189 173 157 181 187 138 127 85 143 216 235 217 190 152 140 145 149 146 118 106 120 151 267 245 280 293 283 298 269 168 267 158 168 242 266 285 0 23 32 24 21 20 258 227 216 217 221 221 194 172
295 296 300 294 286 283 278 276 277 275 271 265 263 263 311 358 339 294 287 284 283 272 254 244 242 247 252 252 253 253 240 229 227 202 188 185 188 192 177 148 167 177 139 142 155 146 169 245 232 192 140 128 150 144 128 123 111 117 134 154 252 244 41 292 285 305 336 22 266 134 133 285 313 335 56 52 54 46 35 33 23 339 245 235 233 230 201 187
293 297 297 290 283 279 275 275 276 268 263 260 266 292 343 347 340 308 270 262 283 274 257 245 238 242 246 248 248 227 215 219 223 200 192 188 183 186 185 160 158 164 162 163 153 164 218 240 185 135 133 153 186 198 144 156 245 237 177 179 234 231 196 227 272 322 346 1 30 94 60 335 335 353 357 358 44 47 33 32 30 21 8 309 258 243 224 201
291 296 294 287 282 276 276 283 275 260 261 265 291 331 343 345 343 320 245 273 283 272 264 241 232 241 240 238 233 210 208 228 223 204 195 193 184 175 181 171 158 174 188 160 145 191 235 234 145 122 142 162 177 215 180 165 203 284 222 201 220 228 222 235 306 6 33 9 0 77 72 306 320 6 349 335 25 41 30 31 26 20 29 41 67 180 208 189
286 287 287 284 283 281 285 288 266 258 259 256 311 311 334 343 331 237 159 16 296 237 218 201 208 230 221 214 215 199 152 248 223 211 201 200 192 177 167 163 153 180 179 154 151 215 232 195 162 151 157 163 180 224 211 163 150 279 235 205 211 216 203 189 85 54 77 316 331 71 111 201 333 10 350 336 19 33 29 35 29 24 30 36 48 89 145 154
286 281 284 284 283 286 289 274 243 255 239 189 253 276 310 313 221 164 131 1 275 187 150 175 189 199 197 200 195 178 89 210 203 211 206 201 193 182 178 174 148 178 165 125 181 235 181 164 172 167 155 162 185 222 209 160 133 228 238 195 186 178 177 165 105 95 183 213 336 6 97 119 19 355 332 331 20 29 27 33 31 30 32 35 42 60 107 129
285 276 279 282 277 277 280 265 253 252 221 221 251 247 256 192 177 147 125 309 207 154 146 175 179 189 196 187 179 173 162 168 170 215 208 198 190 179 177 186 168 177 164 133 194 244 167 168 183 172 158 175 199 206 184 153 146 239 233 177 177 170 161 149 105 108 105 82 336 317 48 91 304 306 334 356 30 24 21 26 28 31 32 38 43 47 69 102
281 273 272 275 274 271 268 263 263 253 226 242 247 235 192 166 169 132 183 262 152 129 142 161 164 179 168 159 172 184 185 161 167 197 191 190 189 180 187 199 176 161 179 170 199 237 217 193 187 158 155 203 216 201 162 159 189 234 194 118 89 74 92 96 101 113 46 67 221 267 42 104 274 313 348 8 26 12 9 18 23 31 32 36 43 48 56 70
280 272 271 275 279 272 264 265 268 250 233 238 238 240 179 157 149 93 218 246 199 156 102 152 166 167 157 146 171 194 191 167 156 156 170 176 181 185 192 193 169 124 177 227 209 238 277 237 192 159 187 214 217 193 162 177 192 153 126 95 55 36 42 46 61 96 74 16 246 255 244 100 130 315 351 9 17 358 2 22 25 30 32 31 36 44 50 55
283 278 277 277 278 268 265 276 261 192 203 235 243 216 158 151 103 161 205 260 280 166 100 157 177 151 158 157 166 189 192 150 132 141 162 167 172 184 150 157 146 86 140 302 282 289 320 311 230 213 217 216 200 186 175 185 175 104 111 112 96 12 17 29 356 47 100 251 259 251 65 76 104 254 346 29 34 18 13 31 32 32 34 34 38 42 46 51
286 285 283 276 273 260 252 280 159 174 165 227 204 147 142 135 244 220 240 320 342 211 183 185 184 158 165 164 163 177 162 134 147 146 159 147 157 194 144 149 169 113 217 239 256 319 315 246 263 261 228 202 154 191 221 119 98 108 115 99 106 38 21 31 298 8 162 236 231 195 102 66 85 227 79 48 35 26 30 44 50 50 47 45 46 47 47 51
287 289 286 272 267 256 239 197 184 181 146 162 160 137 118 113 220 222 254 309 48 173 276 220 162 152 156 157 167 170 145 157 178 149 162 154 148 196 207 172 157 135 186 200 170 319 306 289 296 317 246 196 154 155 168 126 126 145 144 124 129 125 103 212 260 197 212 250 220 208 142 82 261 229 100 81 37 21 39 51 58 59 57 56 54 50 47 46
289 290 283 269 261 256 234 203 202 193 168 163 142 109 124 183 240 213 226 271 43 339 276 201 123 137 159 167 161 152 147 195 180 133 142 149 138 188 219 219 159 138 139 151 143 171 183 289 253 196 234 185 165 175 171 157 149 167 156 130 140 148 141 194 210 166 195 220 286 291 83 117 207 162 88 87 59 44 48 51 55 53 51 57 57 51 46 42
286 283 277 266 257 251 226 203 200 189 176 164 123 96 181 224 258 192 226 257 74 314 281 216 133 146 172 180 147 157 160 193 173 137 140 162 158 184 193 200 192 153 127 157 199 167 157 239 249 240 242 169 171 192 155 125 117 238 137 105 136 178 144 140 181 174 175 150 17 2 83 111 170 106 73 74 77 64 59 54 52 48 44 50 50 45 44 46
282 278 270 267 254 231 214 200 189 181 176 159 123 191 215 238 251 214 261 334 104 257 291 315 142 147 161 173 176 182 162 116 157 148 152 170 170 180 178 200 198 168 148 159 200 140 130 249 276 291 264 206 181 186 158 146 162 204 124 143 195 166 124 119 181 183 99 115 44 358 122 92 63 95 65 68 82 73 63 58 55 49 45 44 40 37 41 46
283 276 266 262 237 204 204 195 182 178 178 163 155 219 231 249 257 260 300 326 290 266 274 260 156 136 154 171 192 185 153 126 160 157 164 171 185 190 179 216 196 183 185 168 194 206 140 258 286 263 240 255 188 146 104 131 138 121 170 188 159 79 89 109 132 15 45 118 244 353 111 120 52 154 92 80 88 82 66 60 54 46 42 38 29 29 34 38
298 293 289 258 204 192 190 183 178 176 173 163 214 256 244 248 273 286 302 311 297 284 157 163 162 118 145 167 202 182 155 168 177 156 157 164 198 152 142 176 192 200 198 165 158 253 132 284 290 268 228 280 72 90 38 1 70 123 162 158 116 113 134 103 118 122 100 137 171 23 49 91 49 223 146 108 109 106 76 56 51 43 37 30 20 18 21 24
330 329 352 112 181 190 179 173 173 170 158 145 207 245 256 260 279 292 304 311 295 279 16 160 132 98 129 150 165 170 164 178 174 152 142 130 142 63 75 181 170 213 186 157 149 244 119 110 283 292 302 309 36 65 165 278 358 59 85 54 69 136 155 163 140 148 152 159 154 83 21 286 207 318 102 102 108 115 92 65 57 48 37 27 17 12 10 12
352 329 10 129 163 176 163 161 162 162 159 178 203 240 293 300 292 297 308 313 283 227 305 159 106 89 108 120 125 160 169 160 143 132 110 86 101 35 327 218 131 43 160 150 151 209 89 112 231 296 329 32 68 338 208 197 219 66 79 57 336 83 109 149 104 111 135 147 154 127 138 234 105 12 62 75 58 75 90 79 64 53 38 25 17 15 9 5
1 320 157 142 151 154 149 147 151 168 197 211 213 246 287 302 296 297 309 313 282 242 281 123 100 105 122 90 86 112 106 94 85 87 72 53 93 116 312 305 179 162 106 103 108 128 140 144 173 302 353 54 46 310 252 150 130 133 123 131 157 125 115 127 156 290 92 117 156 147 152 184 79 58 70 71 53 52 71 79 71 55 41 26 18 19 15 9
339 280 163 147 148 150 145 138 172 192 184 229 279 294 284 291 290 290 307 317 300 290 18 65 65 79 82 85 93 86 84 68 30 75 96 66 103 149 316 331 313 138 109 115 167 167 140 110 90 38 1 112 234 302 19 95 96 91 79 79 112 117 116 127 178 217 77 83 127 104 110 145 89 79 78 77 72 63 64 73 73 57 42 29 21 24 25 21
309 131 141 149 152 151 140 83 313 216 253 274 295 294 279 278 290 290 300 316 330 350 33 28 24 64 44 59 84 74 82 69 34 66 112 78 49 358 340 344 354 86 81 123 205 53 95 87 83 57 326 319 274 288 11 53 73 73 44 32 49 41 121 139 168 173 117 115 110 79 90 160 115 93 86 83 80 73 65 64 65 55 37 26 23 26 26 23
25 58 138 157 160 157 124 119 162 208 266 293 301 286 276 270 263 273 287 308 324 9 68 7 1 53 28 41 74 61 74 86 47 38 87 98 25 356 9 24 64 77 56 154 173 129 97 74 95 109 33 352 331 325 6 22 40 66 23 352 7 11 60 124 124 83 96 159 143 119 129 141 115 98 86 82 79 74 66 59 59 53 37 24 22 24 24 22
75 31 149 167 175 193 246 222 145 154 234 309 313 283 283 274 246 245 258 314 7 61 87 14 5 54 34 40 62 43 42 79 94 44 55 67 13 357 15 31 55 72 71 111 131 126 112 90 111 127 149 171 191 228 207 36 34 57 17 358 11 15 22 135 121 80 104 165 106 109 139 125 111 97 80 73 73 71 65 58 56 50 39 27 21 21 21 22
105 337 157 168 185 206 243 269 281 150 200 4 331 273 253 246 254 260 281 21 28 46 61 28 22 52 39 46 63 40 31 55 80 88 76 56 29 337 11 31 43 49 61 67 70 102 103 64 68 106 130 175 185 200 196 119 79 62 12 4 8 358 350 78 106 112 157 141 58 24 149 130 118 101 82 69 70 71 61 53 50 45 38 30 23 18 17 21
124 228 164 145 183 207 244 270 252 183 164 99 139 262 244 238 275 359 31 42 41 47 54 23 20 50 62 72 84 51 25 46 59 68 68 49 75 342 20 36 35 27 45 51 32 60 102 52 31 69 70 69 94 81 65 72 77 77 59 26 16 18 36 65 81 119 145 124 91 193 138 123 112 96 86 75 73 75 65 57 54 48 41 35 26 19 21 24
131 291 255 139 173 196 218 253 230 210 222 157 217 275 284 300 17 38 4 32 38 35 59 24 6 30 95 109 111 85 29 45 41 36 44 33 40 14 16 25 21 22 44 50 27 67 108 56 29 78 68 49 56 72 80 83 79 66 64 52 34 42 60 73 74 60 95 122 159 145 121 105 98 92 83 76 74 74 71 66 64 58 47 38 29 25 24 21
201 295 274 135 157 179 190 227 211 204 219 211 238 279 276 39 51 14 326 50 36 12 57 78 5 22 59 76 98 94 63 104 75 13 92 48 45 62 35 15 10 22 41 51 31 68 98 60 61 96 83 56 39 56 85 91 85 63 52 51 50 57 66 72 78 79 77 85 113 115 103 90 91 93 87 85 83 80 76 67 60 56 46 37 31 27 21 15
305 326 336 351 330 204 216 241 179 171 212 206 226 273 313 50 53 44 14 59 106 0 45 93 71 51 63 68 79 87 163 146 125 117 151 115 73 84 105 196 313 14 27 46 24 30 77 129 172 93 79 58 39 63 86 90 88 71 47 38 45 57 58 54 65 82 83 85 96 101 97 89 92 96 90 83 78 74 68 57 52 48 41 37 33 26 19 16
309 335 342 328 319 260 238 235 150 142 200 207 213 273 3 22 73 94 40 32 91 120 108 117 104 68 62 64 72 96 141 121 113 112 116 117 130 153 146 186 177 44 19 34 31 21 70 135 171 82 85 99 107 111 108 97 87 71 49 38 40 49 58 45 33 44 88 118 118 109 104 110 117 107 90 74 69 68 58 51 52 46 39 38 34 26 21 20
322 356 53 196 247 264 239 202 106 119 174 209 192 35 38 293 322 101 70 30 53 97 126 128 110 78 65 66 71 109 113 98 98 96 90 89 97 111 112 120 124 105 81 106 65 34 90 128 143 110 108 140 193 186 138 83 78 57 27 27 39 61 78 65 33 22 35 106 125 119 122 126 123 115 99 80 71 67 57 53 56 52 46 43 36 30 26 24
Height
1494 1493 1492 1492 1492 1491 1491 1491 1491 1490 1490 1490 1489 1489 1489 1488 1488 1488 1487 1487 1487 1486 1486 1485 1485 1485 1484 1485 1485 1484 1483 1482 1482 1482 1478 1476 1479 1481 1482 1483 1483 1483 1484 1484 1484 1485 1485 1486 1487 1489 1490 1491 1492 1492 1493 1494 1494 1495 1496 1500 1501 1501 1498 1492 1489 1487 1486 1484 1479 1477 1475 1475 1476 1475 1476 1477 1478 1478 1480 1481 1481 1480 1479 1480 1480 1480 1481 1484
1493 1492 1491 1491 1491 1490 1490 1490 1490 1489 1489 1488 1488 1488 1488 1487 1487 1486 1486 1486 1486 1485 1485 1484 1484 1484 1484 1484 1484 1483 1482 1481 1480 1477 1473 1474 1478 1479 1480 1481 1481 1481 1482 1483 1483 1484 1485 1485 1487 1488 1489 1490 1491 1492 1492 1492 1493 1493 1495 1499 1498 1496 1492 1487 1486 1483 1483 1484 1480 1478 1475 1475 1476 1476 1477 1479 1480 1479 1480 1482 1482 1481 1481 1481 1481 1481 1482 1484
1491 1491 1490 1490 1490 1489 1489 1488 1488 1488 1488 1487 1487 1487 1486 1486 1485 1485 1485 1485 1484 1484 1484 1483 1483 1483 1483 1483 1483 1482 1481 1480 1477 1472 1470 1474 1476 1476 1478 1479 1479 1480 1481 1482 1483 1483 1484 1485 1486 1487 1489 1490 1490 1491 1491 1491 1491 1491 1493 1496 1493 1490 1488 1485 1484 1481 1480 1482 1480 1479 1476 1475 1475 1475 1477 1478 1480 1481 1481 1481 1481 1482 1482 1482 1482 1482 1483 1484
1491 1490 1489 1489 1488 1488 1488 1487 1487 1487 1486 1486 1486 1485 1485 1485 1484 1484 1483 1483 1483 1483 1482 1482 1482 1482 1483 1482 1482 1481 1481 1479 1473 1469 1469 1471 1472 1473 1475 1476 1477 1478 1480 1481 1482 1482 1484 1485 1486 1487 1489 1489 1490 1491 1491 1490 1490 1490 1490 1491 1487 1488 1487 1482 1481 1481 1480 1479 1479 1478 1477 1476 1475 1475 1476 1477 1481 1483 1481 1479 1479 1480 1481 1482 1482 1483 1483 1485
1490 1489 1488 1488 1487 1487 1487 1486 1486 1486 1485 1485 1484 1484 1484 1483 1483 1482 1482 1482 1482 1481 1481 1482 1481 1482 1482 1481 1481 1480 1482 1478 1469 1467 1468 1469 1469 1470 1472 1474 1475 1477 1479 1480 1481 1482 1483 1484 1485 1487 1488 1489 1489 1490 1489 1488 1488 1489 1487 1486 1485 1487 1486 1480 1480 1481 1480 1479 1478 1477 1476 1477 1475 1475 1476 1478 1481 1481 1479 1478 1478 1478 1479 1480 1481 1482 1484 1485
1489 1488 1487 1486 1486 1486 1485 1485 1485 1485 1484 1484 1483 1483 1483 1482 1482 1481 1481 1480 1480 1480 1480 1480 1480 1481 1480 1480 1480 1479 1481 1475 1467 1467 1468 1467 1468 1467 1470 1472 1473 1476 1477 1479 1480 1481 1482 1483 1484 1486 1487 1488 1489 1488 1487 1486 1488 1489 1486 1484 1485 1485 1484 1480 1481 1481 1480 1479 1478 1477 1475 1476 1476 1476 1476 1476 1478 1478 1477 1477 1478 1478 1479 1479 1481 1482 1484 1485
1487 1486 1485 1485 1485 1484 1484 1484 1483 1483 1483 1483 1482 1482 1482 1481 1481 1480 1480 1479 1479 1479 1479 1479 1479 1479 1479 1479 1478 1478 1478 1471 1465 1468 1468 1467 1467 1466 1468 1469 1472 1474 1475 1477 1478 1480 1481 1483 1483 1484 1486 1487 1487 1486 1485 1486 1487 1488 1486 1483 1482 1483 1482 1480 1480 1480 1480 1479 1478 1477 1476 1475 1475 1476 1476 1475 1475 1476 1477 1477 1477 1479 1480 1481 1481 1482 1484 1486
1486 1485 1484 1483 1483 1483 1482 1482 1482 1482 1482 1481 1481 1481 1480 1480 1479 1479 1479 1478 1478 1478 1478 1477 1478 1478 1478 1478 1477 1477 1475 1467 1465 1468 1468 1468 1467 1466 1467 1468 1470 1472 1473 1476 1477 1479 1480 1481 1482 1483 1485 1486 1485 1484 1484 1485 1486 1486 1485 1482 1481 1481 1479 1478 1479 1479 1479 1479 1478 1477 1476 1475 1475 1476 1476 1475 1475 1476 1476 1477 1478 1479 1481 1482 1482 1483 1485 1488
1485 1483 1483 1482 1481 1481 1481 1480 1480 1480 1480 1480 1479 1479 1479 1478 1478 1478 1477 1477 1477 1476 1476 1476 1476 1476 1477 1476 1477 1475 1468 1464 1465 1466 1466 1467 1467 1467 1467 1468 1470 1471 1473 1475 1476 1479 1480 1480 1480 1481 1483 1484 1484 1484 1483 1485 1485 1483 1482 1481 1480 1479 1477 1477 1478 1478 1478 1477 1478 1478 1477 1476 1475 1476 1476 1475 1475 1476 1476 1477 1478 1480 1481 1482 1483 1485 1487 1488
1483 1482 1481 1481 1480 1480 1479 1479 1479 1479 1479 1478 1478 1478 1477 1477 1476 1476 1476 1476 1475 1475 1474 1475 1475 1475 1475 1474 1476 1473 1464 1462 1464 1464 1465 1466 1466 1466 1467 1468 1469 1470 1472 1473 1475 1477 1477 1478 1479 1481 1483 1483 1483 1483 1482 1483 1483 1480 1480 1480 1479 1478 1476 1476 1476 1476 1476 1476 1476 1477 1477 1476 1475 1477 1476 1474 1475 1476 1476 1477 1478 1480 1481 1482 1484 1485 1487 1488
1481 1480 1479 1479 1479 1478 1478 1477 1477 1477 1477 1477 1477 1476 1476 1475 1475 1475 1475 1474 1474 1473 1473 1473 1474 1474 1473 1473 1473 1469 1461 1461 1462 1462 1464 1464 1465 1466 1466 1468 1468 1470 1471 1472 1473 1474 1475 1477 1480 1482 1483 1482 1481 1481 1481 1480 1480 1479 1479 1478 1477 1476 1475 1475 1475 1475 1475 1475 1474 1475 1476 1475 1476 1476 1474 1473 1475 1476 1476 1477 1478 1479 1481 1483 1484 1486 1487 1488
1479 1478 1478 1477 1477 1476 1476 1476 1475 1476 1475 1475 1475 1474 1474 1474 1473 1473 1473 1473 1472 1472 1472 1472 1472 1471 1471 1471 1467 1462 1460 1461 1461 1461 1462 1463 1464 1465 1465 1466 1467 1469 1470 1471 1472 1473 1475 1478 1481 1482 1481 1481 1481 1480 1479 1478 1478 1478 1478 1478 1476 1475 1475 1473 1473 1473 1474 1474 1473 1475 1479 1477 1475 1473 1471 1472 1475 1475 1476 1477 1478 1479 1481 1483 1484 1485 1487 1488
1478 1477 1476 1476 1475 1475 1475 1474 1474 1474 1474 1474 1473 1473 1472 1472 1472 1472 1471 1472 1471 1471 1471 1471 1471 1470 1470 1467 1459 1458 1460 1461 1460 1460 1461 1462 1463 1463 1464 1465 1466 1468 1469 1470 1471 1473 1476 1478 1480 1481 1480 1481 1480 1479 1477 1477 1477 1477 1477 1478 1477 1477 1476 1472 1472 1472 1472 1474 1472 1475 1484 1480 1472 1470 1469 1473 1474 1475 1477 1477 1478 1479 1480 1482 1483 1484 1486 1487
1476 1475 1475 1474 1474 1474 1473 1473 1472 1472 1472 1472 1471 1471 1470 1470 1470 1470 1470 1470 1470 1470 1469 1469 1469 1469 1468 1461 1455 1457 1459 1458 1458 1459 1460 1461 1462 1462 1463 1464 1465 1466 1467 1469 1471 1474 1476 1478 1480 1480 1479 1479 1478 1477 1477 1477 1477 1477 1478 1479 1481 1482 1478 1472 1471 1472 1472 1474 1471 1475 1485 1479 1470 1468 1469 1473 1474 1474 1476 1477 1478 1478 1479 1481 1482 1484 1485 1486
1475 1474 1473 1473 1472 1472 1471 1471 1471 1470 1470 1470 1469 1469 1469 1469 1468 1468 1469 1468 1468 1469 1468 1469 1468 1468 1466 1458 1453 1455 1456 1455 1455 1456 1459 1459 1460 1461 1461 1462 1464 1465 1467 1468 1471 1474 1476 1478 1479 1479 1478 1477 1477 1478 1478 1479 1478 1479 1481 1484 1484 1483 1479 1473 1471 1472 1473 1474 1472 1475 1483 1479 1471 1467 1468 1472 1473 1474 1475 1476 1476 1476 1478 1480 1481 1483 1484 1485
1473 1472 1472 1471 1470 1470 1470 1469 1469 1469 1469 1468 1468 1467 1467 1467 1466 1466 1467 1467 1468 1467 1468 1468 1466 1467 1465 1456 1452 1453 1452 1452 1452 1455 1457 1458 1459 1460 1461 1462 1463 1465 1466 1468 1470 1473 1475 1477 1477 1477 1476 1475 1477 1478 1481 1483 1482 1482 1484 1485 1484 1482 1481 1477 1472 1471 1472 1473 1473 1475 1480 1477 1470 1467 1468 1471 1473 1474 1475 1474 1474 1474 1476 1478 1480 1481 1482 1484
1471 1471 1470 1469 1469 1468 1468 1468 1468 1467 1467 1466 1466 1466 1465 1465 1464 1465 1465 1466 1466 1466 1467 1467 1466 1467 1462 1453 1451 1451 1449 1449 1451 1454 1455 1456 1458 1459 1460 1461 1462 1465 1466 1467 1470 1472 1474 1475 1475 1475 1474 1475 1477 1478 1485 1491 1488 1486 1486 1484 1485 1484 1483 1481 1476 1473 1472 1474 1474 1475 1476 1474 1468 1466 1469 1471 1472 1473 1473 1471 1471 1472 1474 1476 1478 1480 1481 1482
1469 1469 1468 1468 1467 1467 1466 1466 1466 1466 1465 1465 1464 1464 1463 1463 1462 1463 1464 1464 1465 1467 1468 1466 1467 1467 1456 1447 1448 1448 1448 1449 1450 1452 1453 1455 1457 1458 1459 1460 1462 1464 1466 1467 1469 1471 1473 1474 1474 1474 1474 1476 1476 1478 1487 1491 1487 1486 1486 1485 1486 1485 1483 1483 1480 1474 1473 1475 1475 1476 1477 1472 1468 1466 1468 1470 1471 1472 1470 1469 1470 1471 1473 1476 1477 1479 1480 1480
1467 1467 1466 1466 1465 1465 1465 1464 1464 1464 1463 1463 1463 1462 1462 1461 1461 1461 1462 1463 1463 1463 1463 1460 1460 1458 1448 1444 1446 1447 1448 1448 1448 1450 1452 1454 1456 1457 1458 1460 1462 1463 1465 1468 1469 1469 1471 1472 1473 1475 1477 1477 1476 1477 1481 1482 1481 1483 1485 1485 1485 1486 1484 1482 1479 1474 1473 1476 1476 1477 1476 1471 1468 1467 1467 1470 1471 1471 1469 1468 1471 1473 1474 1475 1477 1478 1479 1480
1466 1465 1465 1464 1463 1463 1463 1463 1463 1462 1462 1461 1461 1461 1461 1460 1461 1461 1461 1460 1457 1456 1455 1452 1451 1449 1445 1445 1446 1446 1447 1446 1447 1449 1451 1453 1454 1456 1457 1459 1461 1462 1464 1467 1468 1468 1469 1472 1474 1475 1475 1475 1475 1476 1476 1478 1481 1482 1484 1485 1485 1486 1484 1479 1476 1473 1473 1477 1476 1475 1475 1471 1468 1468 1469 1471 1471 1472 1469 1468 1470 1472 1474 1475 1477 1477 1478 1480
1464 1464 1463 1462 1462 1461 1461 1461 1461 1461 1460 1460 1460 1460 1459 1460 1461 1461 1460 1456 1453 1453 1452 1450 1450 1447 1444 1445 1445 1446 1447 1446 1445 1446 1449 1451 1453 1455 1456 1458 1460 1463 1464 1464 1466 1467 1468 1473 1474 1472 1472 1473 1473 1475 1476 1478 1481 1482 1484 1485 1486 1487 1485 1478 1475 1474 1473 1476 1474 1473 1476 1474 1469 1469 1472 1473 1474 1475 1473 1471 1471 1471 1473 1474 1475 1476 1479 1482
1463 1462 1461 1461 1460 1460 1460 1460 1459 1459 1459 1459 1458 1458 1458 1460 1461 1461 1460 1456 1450 1450 1449 1447 1449 1444 1440 1443 1444 1446 1448 1446 1443 1445 1448 1450 1451 1453 1455 1457 1460 1463 1463 1464 1466 1469 1471 1473 1471 1470 1472 1473 1475 1476 1477 1479 1481 1482 1484 1486 1486 1486 1484 1478 1475 1474 1473 1473 1472 1473 1476 1475 1471 1472 1476 1478 1478 1479 1477 1475 1475 1474 1474 1474 1475 1477 1481 1484
1461 1460 1460 1459 1458 1458 1458 1458 1458 1458 1458 1457 1457 1457 1458 1459 1460 1459 1459 1457 1449 1445 1444 1444 1443 1439 1438 1441 1443 1445 1447 1444 1442 1443 1446 1448 1450 1452 1454 1456 1459 1461 1463 1464 1467 1472 1474 1471 1467 1469 1472 1473 1475 1477 1479 1480 1482 1483 1484 1485 1485 1484 1485 1483 1477 1473 1472 1473 1472 1472 1475 1476 1473 1473 1477 1481 1482 1480 1478 1477 1477 1477 1476 1476 1478 1479 1481 1482
1459 1459 1458 1457 1457 1457 1456 1457 1457 1456 1456 1455 1456 1457 1457 1458 1458 1457 1456 1455 1449 1441 1438 1439 1439 1437 1436 1439 1442 1443 1443 1441 1441 1441 1444 1446 1448 1451 1453 1455 1459 1462 1463 1464 1466 1470 1470 1466 1465 1468 1471 1472 1474 1477 1479 1480 1482 1483 1482 1482 1482 1481 1483 1482 1478 1474 1473 1475 1474 1472 1478 1480 1476 1476 1479 1482 1480 1479 1480 1479 1478 1478 1477 1478 1479 1479 1479 1480
1457 1457 1456 1455 1456 1454 1455 1455 1454 1455 1454 1454 1456 1455 1456 1456 1455 1456 1455 1454 1449 1440 1435 1435 1436 1433 1432 1437 1441 1440 1440 1439 1438 1439 1442 1444 1446 1449 1452 1454 1458 1462 1463 1464 1467 1469 1466 1464 1465 1468 1471 1472 1474 1476 1477 1479 1481 1481 1479 1478 1476 1477 1480 1480 1478 1477 1477 1480 1477 1476 1487 1490 1482 1483 1487 1485 1482 1483 1485 1483 1482 1481 1479 1479 1481 1480 1480 1481
1456 1455 1454 1454 1454 1453 1454 1453 1453 1454 1453 1454 1455 1454 1456 1456 1455 1456 1455 1456 1450 1438 1433 1433 1432 1429 1429 1434 1437 1439 1441 1438 1435 1438 1441 1443 1445 1447 1451 1454 1456 1459 1462 1463 1466 1466 1463 1462 1463 1466 1469 1472 1475 1476 1475 1477 1480 1482 1476 1471 1472 1475 1479 1479 1477 1478 1482 1486 1481 1478 1486 1492 1488 1490 1493 1490 1489 1490 1489 1487 1487 1486 1484 1483 1483 1483 1482 1483
1454 1454 1453 1453 1452 1452 1452 1452 1452 1453 1452 1454 1454 1454 1456 1455 1456 1455 1455 1460 1449 1430 1428 1431 1428 1426 1426 1429 1431 1436 1441 1436 1434 1438 1439 1442 1445 1446 1451 1454 1455 1457 1458 1462 1467 1464 1459 1461 1463 1464 1467 1471 1474 1475 1473 1473 1479 1480 1470 1466 1472 1474 1477 1477 1476 1479 1483 1483 1482 1479 1480 1487 1494 1498 1497 1495 1494 1494 1492 1492 1492 1490 1488 1487 1486 1486 1485 1486
1452 1452 1452 1452 1451 1451 1451 1451 1452 1451 1452 1453 1453 1455 1455 1454 1457 1454 1457 1462 1440 1419 1423 1426 1425 1425 1425 1427 1429 1431 1433 1431 1433 1437 1437 1441 1444 1445 1450 1452 1453 1455 1454 1460 1467 1461 1456 1460 1461 1462 1467 1470 1469 1467 1468 1470 1474 1472 1464 1466 1471 1471 1473 1474 1474 1480 1484 1484 1486 1484 1480 1488 1503 1504 1500 1499 1497 1498 1498 1497 1496 1494 1491 1490 1489 1488 1488 1488
1451 1451 1451 1451 1450 1450 1450 1450 1451 1451 1452 1452 1453 1454 1453 1455 1456 1454 1462 1457 1427 1414 1420 1421 1423 1425 1424 1427 1429 1428 1429 1429 1432 1435 1436 1440 1443 1444 1448 1449 1451 1454 1454 1457 1461 1458 1455 1457 1457 1460 1464 1464 1460 1460 1463 1467 1469 1465 1464 1468 1469 1471 1473 1473 1476 1479 1484 1490 1490 1486 1482 1490 1506 1510 1506 1504 1504 1504 1503 1500 1499 1497 1495 1493 1491 1491 1491 1491
1449 1449 1450 1449 1449 1449 1449 1449 1450 1450 1451 1451 1453 1453 1453 1456 1455 1459 1467 1448 1419 1415 1419 1419 1422 1423 1423 1426 1429 1429 1429 1430 1431 1433 1436 1440 1442 1444 1446 1448 1450 1453 1455 1456 1457 1456 1454 1454 1455 1457 1458 1455 1454 1457 1460 1461 1462 1461 1464 1468 1469 1474 1474 1476 1481 1480 1486 1495 1490 1487 1486 1487 1502 1513 1512 1509 1509 1508 1506 1503 1502 1500 1498 1496 1494 1493 1493 1494
1448 1448 1448 1447 1448 1448 1448 1448 1449 1449 1450 1451 1452 1453 1454 1455 1457 1463 1457 1430 1416 1419 1419 1420 1421 1420 1422 1424 1427 1430 1430 1431 1431 1434 1438 1440 1443 1444 1446 1449 1452 1455 1458 1458 1457 1457 1454 1455 1455 1452 1451 1451 1451 1456 1458 1458 1460 1462 1465 1468 1472 1479 1479 1482 1486 1484 1494 1499 1490 1491 1492 1490 1503 1514 1513 1511 1510 1508 1506 1505 1503 1502 1501 1499 1497 1496 1496 1496
1446 1446 1446 1446 1446 1446 1447 1448 1448 1449 1450 1450 1452 1452 1453 1457 1461 1459 1441 1420 1421 1423 1417 1420 1420 1419 1422 1423 1425 1428 1429 1432 1432 1433 1437 1440 1444 1445 1446 1450 1452 1459 1465 1462 1459 1459 1455 1454 1453 1450 1448 1449 1452 1458 1460 1460 1462 1464 1466 1469 1478 1488 1491 1493 1495 1495 1497 1495 1492 1495 1494 1499 1514 1515 1511 1512 1510 1509 1507 1505 1504 1503 1503 1501 1499 1498 1498 1498
1444 1444 1444 1444 1444 1444 1446 1447 1448 1449 1449 1450 1452 1451 1454 1460 1457 1446 1434 1425 1424 1422 1417 1418 1418 1418 1421 1423 1426 1427 1429 1432 1432 1433 1436 1438 1443 1446 1445 1447 1448 1454 1461 1462 1462 1461 1458 1455 1451 1450 1448 1446 1450 1457 1461 1463 1464 1463 1464 1468 1479 1492 1499 1504 1507 1507 1500 1492 1494 1494 1494 1508 1520 1514 1511 1513 1511 1509 1508 1505 1505 1504 1504 1503 1501 1500 1499 1499
1442 1442 1442 1442 1442 1442 1445 1447 1447 1448 1449 1450 1451 1452 1457 1460 1446 1433 1432 1427 1422 1422 1419 1416 1417 1420 1421 1422 1425 1425 1430 1433 1431 1433 1437 1439 1445 1447 1447 1448 1448 1448 1452 1459 1463 1462 1465 1462 1451 1448 1448 1444 1446 1450 1452 1456 1459 1461 1461 1464 1472 1481 1490 1498 1501 1499 1496 1493 1494 1493 1499 1515 1520 1514 1513 1512 1511 1510 1508 1507 1507 1506 1506 1504 1502 1502 1501 1501
1441 1441 1440 1440 1441 1442 1444 1445 1446 1448 1449 1449 1451 1455 1458 1453 1438 1431 1430 1423 1422 1426 1419 1413 1416 1422 1423 1423 1423 1423 1427 1432 1432 1433 1438 1441 1444 1446 1446 1446 1447 1447 1449 1458 1462 1460 1465 1462 1446 1443 1444 1441 1443 1444 1444 1450 1459 1464 1463 1464 1469 1469 1473 1487 1495 1492 1489 1491 1499 1504 1511 1517 1516 1513 1513 1511 1511 1511 1509 1510 1509 1508 1507 1504 1503 1503 1504 1505
1439 1439 1439 1438 1440 1441 1441 1443 1445 1447 1448 1448 1452 1455 1453 1444 1434 1430 1425 1420 1424 1426 1420 1417 1417 1421 1427 1425 1424 1423 1424 1428 1432 1434 1438 1440 1441 1442 1443 1442 1443 1444 1446 1452 1458 1459 1463 1458 1445 1442 1443 1439 1441 1442 1441 1447 1456 1464 1464 1463 1465 1462 1464 1480 1494 1496 1489 1491 1507 1517 1516 1517 1516 1514 1513 1512 1512 1512 1511 1512 1512 1511 1509 1506 1505 1506 1506 1506
1438 1437 1437 1437 1438 1439 1439 1441 1444 1446 1447 1448 1451 1451 1446 1439 1431 1427 1423 1419 1421 1420 1420 1423 1419 1420 1426 1426 1425 1424 1423 1428 1431 1433 1438 1441 1441 1441 1441 1440 1440 1441 1441 1445 1451 1454 1457 1454 1445 1442 1442 1439 1440 1441 1441 1442 1448 1458 1462 1459 1462 1465 1467 1473 1486 1496 1494 1496 1512 1521 1517 1519 1520 1517 1515 1514 1513 1514 1514 1514 1514 1513 1510 1509 1509 1509 1508 1508
1437 1436 1435 1435 1436 1436 1438 1440 1443 1445 1446 1448 1451 1448 1442 1437 1429 1425 1423 1420 1419 1417 1418 1421 1418 1417 1422 1424 1425 1423 1424 1429 1431 1433 1438 1440 1441 1440 1439 1440 1439 1439 1439 1441 1447 1450 1453 1455 1448 1442 1443 1441 1439 1442 1446 1445 1444 1449 1453 1453 1459 1469 1474 1476 1484 1494 1497 1502 1515 1523 1522 1522 1520 1517 1515 1515 1515 1515 1515 1515 1515 1514 1513 1513 1513 1512 1511 1510
1436 1436 1434 1434 1435 1436 1438 1440 1443 1445 1447 1449 1452 1447 1440 1435 1429 1425 1423 1421 1419 1417 1417 1417 1415 1417 1419 1420 1423 1423 1423 1427 1430 1433 1437 1440 1442 1440 1438 1439 1438 1439 1439 1440 1445 1448 1451 1457 1453 1444 1443 1443 1442 1446 1451 1451 1448 1447 1450 1454 1458 1464 1470 1474 1479 1485 1490 1501 1515 1522 1524 1523 1519 1517 1514 1514 1515 1515 1515 1517 1517 1517 1518 1517 1516 1515 1513 1512
1437 1436 1435 1434 1435 1437 1438 1441 1444 1445 1447 1448 1448 1444 1438 1434 1429 1424 1421 1421 1418 1415 1415 1415 1414 1417 1418 1418 1420 1422 1422 1425 1429 1434 1437 1439 1442 1440 1438 1438 1438 1439 1439 1439 1443 1446 1450 1457 1457 1448 1445 1447 1450 1453 1453 1451 1451 1452 1454 1459 1461 1463 1467 1471 1477 1482 1482 1491 1507 1516 1522 1523 1518 1516 1516 1516 1517 1516 1517 1520 1521 1521 1521 1519 1518 1516 1515 1513
1436 1436 1435 1435 1436 1437 1439 1442 1444 1445 1446 1445 1444 1442 1438 1435 1431 1424 1420 1419 1417 1414 1413 1414 1414 1416 1417 1418 1420 1421 1422 1427 1431 1435 1438 1440 1442 1442 1438 1437 1438 1438 1439 1441 1444 1446 1450 1455 1457 1454 1452 1456 1460 1458 1454 1451 1453 1456 1457 1463 1466 1465 1467 1473 1481 1486 1482 1487 1499 1506 1514 1520 1519 1517 1518 1519 1520 1520 1520 1522 1523 1524 1523 1522 1520 1518 1517 1515
1436 1435 1435 1435 1437 1438 1440 1442 1444 1444 1445 1443 1441 1440 1437 1435 1431 1426 1421 1418 1416 1414 1413 1413 1414 1416 1417 1418 1420 1420 1424 1430 1434 1436 1440 1441 1441 1442 1439 1437 1438 1437 1438 1444 1446 1446 1448 1452 1458 1461 1461 1464 1463 1459 1456 1453 1453 1458 1462 1469 1471 1467 1467 1471 1478 1483 1486 1493 1499 1499 1509 1520 1520 1519 1520 1521 1522 1522 1523 1524 1524 1525 1524 1523 1522 1519 1519 1517
1436 1435 1435 1436 1438 1439 1441 1443 1444 1444 1443 1441 1440 1438 1436 1435 1432 1427 1423 1419 1417 1415 1415 1415 1415 1416 1417 1417 1418 1421 1425 1433 1437 1437 1439 1442 1441 1441 1439 1437 1438 1437 1439 1445 1447 1446 1448 1453 1462 1468 1465 1462 1459 1457 1456 1453 1454 1460 1467 1474 1475 1472 1470 1469 1473 1477 1484 1495 1497 1496 1510 1521 1520 1521 1522 1522 1523 1523 1523 1525 1524 1525 1524 1523 1522 1520 1519 1518
1436 1436 1436 1438 1440 1440 1441 1442 1443 1444 1442 1440 1439 1437 1435 1434 1431 1427 1424 1421 1418 1416 1417 1418 1417 1417 1418 1417 1419 1423 1425 1431 1439 1439 1439 1442 1442 1440 1439 1437 1437 1438 1439 1443 1444 1444 1450 1458 1463 1468 1472 1470 1466 1463 1459 1457 1462 1470 1477 1479 1478 1477 1474 1471 1476 1477 1482 1497 1497 1493 1508 1519 1519 1522 1523 1522 1523 1523 1524 1526 1525 1524 1524 1523 1522 1521 1519 1518
1437 1438 1438 1438 1440 1441 1441 1441 1441 1442 1442 1441 1441 1439 1436 1433 1428 1426 1425 1421 1419 1418 1419 1420 1420 1419 1420 1419 1422 1426 1425 1429 1438 1441 1440 1442 1442 1441 1440 1438 1438 1438 1439 1441 1441 1443 1453 1463 1463 1464 1472 1476 1474 1472 1469 1469 1472 1477 1482 1482 1479 1480 1477 1471 1473 1473 1480 1498 1501 1496 1507 1519 1520 1522 1524 1523 1524 1524 1525 1526 1525 1524 1524 1524 1523 1521 1520 1519
1438 1439 1439 1439 1441 1441 1441 1440 1440 1442 1442 1443 1442 1439 1437 1433 1426 1424 1423 1422 1421 1420 1421 1423 1422 1422 1423 1424 1426 1431 1431 1431 1434 1439 1442 1443 1444 1443 1441 1440 1439 1440 1440 1441 1442 1444 1455 1468 1468 1465 1468 1470 1472 1475 1476 1477 1478 1481 1486 1487 1484 1485 1482 1474 1471 1473 1482 1496 1503 1503 1507 1514 1520 1524 1524 1525 1525 1525 1526 1526 1525 1525 1524 1524 1523 1522 1521 1520
1437 1439 1438 1439 1441 1442 1441 1440 1440 1441 1442 1443 1442 1437 1433 1430 1426 1424 1423 1423 1423 1422 1423 1425 1425 1425 1427 1428 1431 1436 1438 1436 1436 1440 1443 1444 1444 1444 1443 1441 1440 1441 1441 1441 1443 1446 1456 1470 1474 1474 1477 1478 1479 1481 1481 1481 1485 1489 1492 1492 1491 1489 1484 1478 1478 1484 1488 1489 1496 1505 1508 1512 1522 1526 1526 1528 1527 1527 1527 1526 1526 1527 1525 1524 1524 1522 1521 1519
1437 1437 1436 1436 1438 1440 1441 1440 1439 1440 1442 1443 1442 1436 1431 1429 1426 1426 1424 1423 1424 1424 1425 1430 1431 1430 1430 1430 1432 1438 1442 1442 1444 1446 1446 1446 1446 1445 1445 1444 1443 1443 1443 1443 1445 1448 1458 1473 1477 1478 1484 1487 1486 1486 1484 1485 1490 1494 1494 1495 1495 1493 1487 1486 1492 1497 1495 1488 1491 1504 1511 1516 1525 1527 1527 1529 1529 1528 1529 1528 1528 1527 1526 1525 1524 1522 1521 1520
1437 1437 1436 1436 1436 1437 1438 1438 1438 1439 1440 1442 1440 1434 1430 1429 1427 1427 1425 1424 1427 1428 1427 1434 1438 1435 1433 1431 1433 1440 1444 1444 1447 1449 1448 1448 1449 1448 1449 1448 1446 1445 1444 1446 1449 1450 1461 1477 1480 1478 1486 1492 1492 1491 1489 1488 1492 1496 1497 1498 1498 1497 1496 1496 1499 1500 1500 1498 1500 1507 1515 1522 1527 1528 1529 1530 1529 1529 1530 1529 1529 1528 1527 1526 1525 1523 1523 1522
1437 1436 1436 1436 1436 1436 1437 1437 1437 1438 1438 1439 1438 1432 1430 1430 1428 1428 1428 1428 1432 1432 1431 1436 1440 1438 1436 1436 1436 1441 1445 1444 1445 1448 1448 1449 1450 1450 1451 1452 1450 1448 1447 1449 1452 1451 1460 1477 1481 1478 1486 1495 1497 1496 1494 1492 1495 1499 1503 1503 1501 1501 1501 1503 1504 1502 1503 1508 1511 1513 1519 1525 1528 1528 1529 1530 1530 1530 1530 1530 1529 1528 1528 1527 1526 1526 1525 1523
1437 1436 1436 1437 1436 1436 1436 1435 1436 1436 1436 1436 1435 1431 1430 1431 1429 1429 1430 1431 1431 1433 1434 1437 1439 1439 1439 1440 1441 1444 1446 1444 1444 1446 1446 1447 1448 1449 1450 1451 1451 1451 1450 1452 1454 1454 1459 1474 1480 1478 1486 1497 1498 1497 1497 1493 1493 1499 1506 1508 1506 1506 1506 1508 1508 1506 1505 1509 1513 1514 1518 1525 1528 1528 1529 1530 1531 1531 1531 1530 1530 1529 1529 1529 1528 1527 1526 1524
1437 1436 1436 1437 1436 1435 1434 1434 1435 1435 1433 1432 1433 1431 1431 1432 1430 1429 1432 1435 1434 1434 1436 1437 1438 1440 1443 1444 1444 1445 1445 1445 1445 1447 1447 1447 1447 1448 1449 1450 1451 1451 1453 1454 1457 1459 1462 1471 1477 1477 1484 1496 1497 1495 1496 1490 1487 1498 1509 1511 1510 1510 1509 1510 1511 1510 1509 1509 1511 1513 1518 1525 1528 1528 1530 1531 1532 1532 1532 1532 1531 1531 1530 1530 1529 1528 1527 1525